Kearney, NE

4:46 PM CST on February 24, 2017 (GMT -0600)
Kearney Municipal

Weather History for KEAR - March, 2014

Change the Weather History Date:

Saturday, March 22, 2014

  Actual Average Record
Temperature  
Mean Temperature 22 °F 40 °F  
Max Temperature 28 °F 53 °F 90 °F (1910)
Min Temperature 16 °F 27 °F 6 °F (2002)
Degree Days  
Heating Degree Days 43 25  
Month to date heating degree days 636  
Since 1 July heating degree days 5562  
Cooling Degree Days 0 0  
Month to date cooling degree days 0  
Year to date cooling degree days 0  
Moisture  
Dew Point 16 °F    
Average Humidity 65    
Maximum Humidity 84    
Minimum Humidity 46    
Precipitation  
Precipitation 0.00 in - 2.06 in (1979)
Sea Level Pressure  
Sea Level Pressure 30.38 in    
Wind  
Wind Speed 14 mph (NNE)    
Max Wind Speed 18 mph    
Max Gust Speed 24 mph    
Visibility 8 miles    
Events      
T = Trace of Precipitation, MM = Missing Value Source: NWS Daily Summary

Daily Weather History Graph

Daily Weather History Graph

Search for Another Location

Airport or City:

Trip Planner

Search our weather history database for the weather conditions in past years. The results will help you decide how hot, cold, wet, or windy it might be!

Date:

Astronomy

Mar. 22, 2014 Rise Set
Actual Time 7:36 AM CDT 7:50 PM CDT
Civil Twilight 7:08 AM CDT 8:17 PM CDT
Nautical Twilight 6:36 AM CDT 8:49 PM CDT
Astronomical Twilight 6:04 AM CDT 9:22 PM CDT
Moon 1:12 AM CDT (3/22) 11:19 AM CDT (3/22)
Length of Visible Light 13h 09m
Length of Day
12h 14m
Waning Gibbous, 65% of the Moon is Illuminated
Mar 22
Waning Gibbous
Mar 23
Last Quarter
Mar 30
New
Apr 7
First Quarter
Apr 15
Full

Hourly Weather History & Observations

Time (CDT) Temp. Windchill Dew Point Humidity Pressure Visibility Wind Dir Wind Speed Gust Speed Precip Events Conditions
12:15 AM 30.2 °F 20.8 °F 21.2 °F 69% 30.29 in 10.0 mi North 11.5 mph - N/A   Clear
12:35 AM 28.4 °F 18.5 °F 19.4 °F 69% 30.30 in 10.0 mi North 11.5 mph - N/A   Clear
12:55 AM 28.4 °F 19.7 °F 19.4 °F 69% 30.30 in 10.0 mi NNW 9.2 mph - N/A   Clear
1:15 AM 28.4 °F 17.5 °F 19.4 °F 69% 30.30 in 10.0 mi North 13.8 mph - N/A   Clear
1:35 AM 28.4 °F 18.0 °F 19.4 °F 69% 30.30 in 10.0 mi North 12.7 mph - N/A   Clear
1:55 AM 26.6 °F 15.7 °F 19.4 °F 74% 30.30 in 10.0 mi North 12.7 mph - N/A   Clear
2:15 AM 26.6 °F 14.3 °F 19.4 °F 74% 30.30 in 10.0 mi North 16.1 mph - N/A   Clear
2:35 AM 26.6 °F 14.7 °F 19.4 °F 74% 30.29 in 10.0 mi North 15.0 mph - N/A   Clear
2:55 AM 26.6 °F 14.7 °F 19.4 °F 74% 30.29 in 10.0 mi North 15.0 mph - N/A   Partly Cloudy
3:15 AM 26.6 °F 15.7 °F 19.4 °F 74% 30.29 in 10.0 mi North 12.7 mph - N/A   Mostly Cloudy
3:35 AM 26.6 °F 15.2 °F 19.4 °F 74% 30.29 in 10.0 mi North 13.8 mph - N/A   Overcast
3:55 AM 26.6 °F 15.7 °F 19.4 °F 74% 30.29 in 10.0 mi North 12.7 mph - N/A   Overcast
4:15 AM 26.6 °F 15.2 °F 19.4 °F 74% 30.28 in 10.0 mi North 13.8 mph - N/A   Overcast
4:35 AM 26.6 °F 14.3 °F 19.4 °F 74% 30.28 in 10.0 mi North 16.1 mph - N/A   Overcast
4:55 AM 26.6 °F 14.7 °F 17.6 °F 69% 30.29 in 10.0 mi North 15.0 mph - N/A   Overcast
5:15 AM 26.6 °F 13.8 °F 17.6 °F 69% 30.30 in 10.0 mi North 17.3 mph - N/A   Overcast
5:35 AM 26.6 °F 13.4 °F 17.6 °F 69% 30.30 in 10.0 mi North 18.4 mph - N/A   Overcast
5:55 AM 26.6 °F 14.3 °F 17.6 °F 69% 30.31 in 10.0 mi North 16.1 mph - N/A   Overcast
6:15 AM 26.6 °F 14.3 °F 15.8 °F 64% 30.31 in 10.0 mi North 16.1 mph - N/A   Overcast
6:35 AM 24.8 °F 11.9 °F 15.8 °F 69% 30.30 in 10.0 mi North 16.1 mph - N/A   Overcast
6:55 AM 24.8 °F 11.9 °F 17.6 °F 74% 30.31 in 10.0 mi NNE 16.1 mph - N/A   Overcast
7:15 AM 26.6 °F 15.7 °F 17.6 °F 69% 30.33 in 10.0 mi NNE 12.7 mph - N/A   Overcast
7:35 AM 24.8 °F 10.7 °F 15.8 °F 69% 30.33 in 10.0 mi NNE 19.6 mph - N/A   Overcast
7:55 AM 24.8 °F 12.4 °F 15.8 °F 69% 30.34 in 10.0 mi NE 15.0 mph - N/A   Overcast
8:15 AM 24.8 °F 12.9 °F 15.8 °F 69% 30.35 in 10.0 mi NE 13.8 mph - N/A   Mostly Cloudy
8:35 AM 24.8 °F 12.4 °F 15.8 °F 69% 30.35 in 10.0 mi NNE 15.0 mph - N/A   Partly Cloudy
8:55 AM 24.8 °F 12.4 °F 14.0 °F 64% 30.36 in 10.0 mi NNE 15.0 mph - N/A   Clear
9:15 AM 24.8 °F 13.4 °F 14.0 °F 64% 30.37 in 10.0 mi NNE 12.7 mph - N/A   Clear
9:35 AM 24.8 °F 12.4 °F 12.2 °F 59% 30.38 in 10.0 mi NNE 15.0 mph - N/A   Clear
9:55 AM 24.8 °F 11.9 °F 12.2 °F 59% 30.38 in 10.0 mi NNE 16.1 mph - N/A   Mostly Cloudy
10:15 AM 24.8 °F 11.9 °F 12.2 °F 59% 30.40 in 10.0 mi NNE 16.1 mph 21.9 mph N/A   Overcast
10:35 AM 24.8 °F 11.5 °F 12.2 °F 59% 30.40 in 10.0 mi North 17.3 mph - N/A   Overcast
10:55 AM 26.6 °F 13.4 °F 12.2 °F 55% 30.39 in 10.0 mi North 18.4 mph - N/A   Scattered Clouds
11:15 AM 26.6 °F 15.2 °F 10.4 °F 51% 30.39 in 10.0 mi NNE 13.8 mph 23.0 mph N/A   Clear
11:35 AM 26.6 °F 13.8 °F 10.4 °F 51% 30.38 in 10.0 mi North 17.3 mph 23.0 mph N/A   Mostly Cloudy
11:55 AM 26.6 °F 13.8 °F 10.4 °F 51% 30.38 in 10.0 mi North 17.3 mph - N/A   Overcast
12:15 PM 26.6 °F 13.8 °F 8.6 °F 47% 30.38 in 10.0 mi NNE 17.3 mph 25.3 mph N/A   Overcast
12:35 PM 26.6 °F 13.4 °F 10.4 °F 51% 30.38 in 10.0 mi NNE 18.4 mph 24.2 mph N/A   Overcast
12:55 PM 26.6 °F 14.3 °F 8.6 °F 47% 30.38 in 10.0 mi NNE 16.1 mph 24.2 mph N/A   Overcast
1:15 PM 26.6 °F 14.7 °F 8.6 °F 47% 30.38 in 10.0 mi NNE 15.0 mph - N/A   Overcast
1:35 PM 26.6 °F 14.7 °F 10.4 °F 51% 30.38 in 10.0 mi NNE 15.0 mph 20.7 mph N/A   Overcast
1:55 PM 26.6 °F 14.7 °F 12.2 °F 55% 30.39 in 4.0 mi NE 15.0 mph - N/A   Overcast
2:15 PM 26.6 °F 13.4 °F 10.4 °F 51% 30.39 in 10.0 mi NNE 18.4 mph 21.9 mph N/A   Overcast
2:35 PM 24.8 °F 12.9 °F 14.0 °F 64% 30.39 in 2.0 mi NNE 13.8 mph - N/A   Overcast
2:55 PM 24.8 °F 11.5 °F 14.0 °F 64% 30.39 in 3.0 mi NNE 17.3 mph - N/A   Overcast
3:15 PM 24.8 °F 12.4 °F 15.8 °F 69% 30.40 in 1.5 mi NNE 15.0 mph - N/A   Overcast
3:35 PM 24.8 °F 12.9 °F 17.6 °F 74% 30.39 in 1.8 mi NNE 13.8 mph - N/A   Overcast
3:55 PM 24.8 °F 11.9 °F 17.6 °F 74% 30.39 in 1.8 mi NNE 16.1 mph - N/A   Overcast
4:15 PM 24.8 °F 11.9 °F 17.6 °F 74% 30.39 in 1.5 mi NNE 16.1 mph - N/A   Overcast
4:35 PM 24.8 °F 12.4 °F 17.6 °F 74% 30.39 in 2.5 mi NNE 15.0 mph - N/A   Overcast
4:55 PM 24.8 °F 13.4 °F 19.4 °F 80% 30.39 in 1.8 mi NNE 12.7 mph - N/A   Overcast
5:15 PM 24.8 °F 12.9 °F 19.4 °F 80% 30.39 in 2.0 mi NNE 13.8 mph - N/A   Overcast
5:35 PM 24.8 °F 11.9 °F 19.4 °F 80% 30.39 in 3.0 mi NNE 16.1 mph - N/A   Overcast
5:55 PM 24.8 °F 11.1 °F 17.6 °F 74% 30.39 in 6.0 mi NNE 18.4 mph - N/A   Overcast
6:15 PM 24.8 °F 11.5 °F 17.6 °F 74% 30.40 in 5.0 mi NNE 17.3 mph - N/A   Overcast
6:35 PM 24.8 °F 11.1 °F 17.6 °F 74% 30.41 in 4.0 mi North 18.4 mph - N/A   Overcast
6:55 PM 21.2 °F 7.8 °F 15.8 °F 80% 30.41 in 6.0 mi North 15.0 mph - N/A   Mostly Cloudy
7:15 PM 21.2 °F 7.8 °F 15.8 °F 80% 30.42 in 3.0 mi North 15.0 mph - N/A   Overcast
7:35 PM 21.2 °F 8.9 °F 15.8 °F 80% 30.43 in 2.5 mi NNE 12.7 mph - N/A   Overcast
7:55 PM 21.2 °F 10.9 °F 17.6 °F 86% 30.44 in 2.0 mi North 9.2 mph - N/A   Overcast
8:15 PM 21.2 °F 11.7 °F 17.6 °F 86% 30.44 in 3.0 mi North 8.1 mph - N/A   Overcast
8:35 PM 21.2 °F 10.1 °F 17.6 °F 86% 30.46 in 4.0 mi North 10.4 mph - N/A   Overcast
8:55 PM 21.2 °F 8.3 °F 17.6 °F 86% 30.47 in 3.0 mi North 13.8 mph - N/A   Overcast
9:15 PM 21.2 °F 8.3 °F 15.8 °F 80% 30.48 in 10.0 mi North 13.8 mph - N/A   Overcast
9:35 PM 21.2 °F 9.5 °F 12.2 °F 68% 30.48 in 10.0 mi North 11.5 mph - N/A   Overcast
9:55 PM 19.4 °F 7.9 °F 12.2 °F 74% 30.49 in 10.0 mi North 10.4 mph - N/A   Mostly Cloudy
10:15 PM 19.4 °F 8.6 °F 12.2 °F 74% 30.49 in 10.0 mi North 9.2 mph - N/A   Clear
10:35 PM 19.4 °F 11.5 °F 12.2 °F 74% 30.50 in 10.0 mi North 5.8 mph - N/A   Mostly Cloudy
10:55 PM 19.4 °F 11.5 °F 14.0 °F 80% 30.50 in 10.0 mi NNW 5.8 mph - N/A   Scattered Clouds
11:15 PM 19.4 °F 12.8 °F 12.2 °F 74% 30.51 in 10.0 mi NW 4.6 mph - N/A   Clear
11:35 PM 17.6 °F 10.7 °F 14.0 °F 86% 30.51 in 10.0 mi NW 4.6 mph - N/A   Clear
11:55 PM 17.6 °F 9.3 °F 12.2 °F 79% 30.51 in 10.0 mi NW 5.8 mph - N/A   Clear